• In Hungary
  • List of Countries
  • For 7 days
  • Water Temperature
  • Satellite Maps
  • Weather Map
  • News
  • Weather Widgets
  • user-avatar
    Login

    Hourly Weather Debrecen

    Today, 17 August, Thursday

    Time Temperature Precipitation Wind Pressure Humidity
    00:00 +22°C° 0 mm 1 mps 753 mmHg 56%
    01:00 +21°C° 0 mm 1 mps 753 mmHg 58%
    02:00 +21°C° 0 mm 1 mps 753 mmHg 59%
    03:00 +21°C° 0 mm 1 mps 753 mmHg 61%
    04:00 +19°C° 0 mm 2 mps 753 mmHg 62%
    05:00 +20°C° 0 mm 2 mps 753 mmHg 59%
    06:00 +23°C° 0 mm 2 mps 753 mmHg 57%
    07:00 +24°C° 0 mm 3 mps 753 mmHg 53%
    08:00 +26°C° 0 mm 3 mps 753 mmHg 48%
    09:00 +28°C° 0 mm 3 mps 753 mmHg 44%
    10:00 +30°C° 0 mm 3 mps 753 mmHg 39%
    11:00 +31°C° 0 mm 3 mps 753 mmHg 36%
    12:00 +33°C° 0 mm 3 mps 753 mmHg 33%
    13:00 +34°C° 0 mm 2 mps 752 mmHg 31%
    14:00 +34°C° 0 mm 2 mps 752 mmHg 30%
    15:00 +35°C° 0 mm 2 mps 752 mmHg 30%
    16:00 +35°C° 0 mm 2 mps 752 mmHg 30%
    17:00 +32°C° 0 mm 2 mps 752 mmHg 35%
    18:00 +30°C° 0 mm 2 mps 752 mmHg 40%
    19:00 +28°C° 0 mm 2 mps 752 mmHg 45%
    20:00 +27°C° 0 mm 2 mps 752 mmHg 47%
    21:00 +26°C° 0 mm 2 mps 753 mmHg 50%
    22:00 +25°C° 0 mm 2 mps 753 mmHg 53%
    23:00 +25°C° 0 mm 2 mps 753 mmHg 54%

    Tomorrow, 18 August, Friday

    Time Temperature Precipitation Wind Pressure Humidity
    00:00 +24°C° 0 mm 2 mps 753 mmHg 55%
    01:00 +23°C° 0 mm 2 mps 753 mmHg 57%
    02:00 +23°C° 0 mm 2 mps 753 mmHg 58%
    03:00 +21°C° 0 mm 2 mps 753 mmHg 59%
    04:00 +21°C° 0 mm 2 mps 753 mmHg 60%
    05:00 +23°C° 0 mm 2 mps 753 mmHg 57%
    06:00 +24°C° 0 mm 2 mps 753 mmHg 54%
    07:00 +26°C° 0 mm 2 mps 753 mmHg 50%
    08:00 +28°C° 0 mm 2 mps 753 mmHg 45%
    09:00 +30°C° 0 mm 1 mps 753 mmHg 40%
    10:00 +32°C° 0 mm 1 mps 753 mmHg 35%
    11:00 +33°C° 0 mm 1 mps 753 mmHg 32%
    12:00 +34°C° 0 mm 1 mps 752 mmHg 29%
    13:00 +35°C° 0 mm 1 mps 752 mmHg 26%
    14:00 +35°C° 0 mm 1 mps 752 mmHg 25%
    15:00 +35°C° 0 mm 1 mps 752 mmHg 25%
    16:00 +35°C° 0 mm 1 mps 751 mmHg 24%
    17:00 +33°C° 0 mm 1 mps 751 mmHg 28%
    18:00 +31°C° 0 mm 2 mps 751 mmHg 33%
    19:00 +29°C° 0 mm 2 mps 751 mmHg 37%
    20:00 +28°C° 0 mm 2 mps 751 mmHg 39%
    21:00 +27°C° 0 mm 2 mps 751 mmHg 42%
    22:00 +26°C° 0 mm 2 mps 751 mmHg 44%
    23:00 +25°C° 0 mm 2 mps 751 mmHg 46%

    Day after tomorrow, 19 August, Saturday

    Time Temperature Precipitation Wind Pressure Humidity
    00:00 +25°C° 0 mm 2 mps 751 mmHg 48%
    01:00 +24°C° 0 mm 2 mps 751 mmHg 49%
    02:00 +24°C° 0 mm 2 mps 751 mmHg 50%
    03:00 +23°C° 0 mm 2 mps 751 mmHg 51%
    04:00 +23°C° 0 mm 2 mps 751 mmHg 53%
    05:00 +24°C° 0 mm 2 mps 751 mmHg 49%
    06:00 +25°C° 0 mm 2 mps 751 mmHg 46%
    07:00 +27°C° 0 mm 2 mps 751 mmHg 43%
    08:00 +29°C° 0 mm 2 mps 751 mmHg 39%
    09:00 +31°C° 0 mm 2 mps 751 mmHg 34%
    10:00 +34°C° 0 mm 2 mps 751 mmHg 29%
    11:00 +35°C° 0 mm 2 mps 750 mmHg 26%
    12:00 +36°C° 0 mm 2 mps 750 mmHg 24%
    13:00 +37°C° 0 mm 3 mps 749 mmHg 22%
    14:00 +37°C° 0 mm 2 mps 749 mmHg 23%
    15:00 +36°C° 0 mm 2 mps 749 mmHg 25%
    16:00 +35°C° 0 mm 2 mps 748 mmHg 26%
    17:00 +34°C° 0 mm 2 mps 749 mmHg 28%
    18:00 +31°C° 0 mm 2 mps 749 mmHg 31%
    19:00 +30°C° 0 mm 1 mps 749 mmHg 33%
    20:00 +29°C° 0 mm 2 mps 749 mmHg 36%
    21:00 +28°C° 0 mm 2 mps 749 mmHg 40%
    22:00 +26°C° 0 mm 3 mps 750 mmHg 44%
    23:00 +25°C° 0 mm 3 mps 750 mmHg 50%

    20 August, Sunday

    Time Temperature Precipitation Wind Pressure Humidity
    00:00 +23°C° 0 mm 4 mps 750 mmHg 56%
    01:00 +22°C° 0 mm 5 mps 750 mmHg 62%
    02:00 +21°C° 0.1 mm 4 mps 750 mmHg 67%
    03:00 +21°C° 0.1 mm 4 mps 749 mmHg 71%
    04:00 +20°C° 0.1 mm 3 mps 749 mmHg 75%
    05:00 +20°C° 0.2 mm 3 mps 750 mmHg 75%
    06:00 +21°C° 0.2 mm 4 mps 750 mmHg 75%
    07:00 +21°C° 0.2 mm 4 mps 750 mmHg 75%
    08:00 +21°C° 0.7 mm 3 mps 750 mmHg 76%
    09:00 +22°C° 0.7 mm 3 mps 750 mmHg 76%
    10:00 +22°C° 0.7 mm 3 mps 750 mmHg 76%
    11:00 +21°C° 0.7 mm 3 mps 751 mmHg 79%
    12:00 +21°C° 0.7 mm 4 mps 751 mmHg 82%
    13:00 +20°C° 0.7 mm 4 mps 751 mmHg 85%
    14:00 +19°C° 0.4 mm 5 mps 751 mmHg 84%
    15:00 +17°C° 0.4 mm 5 mps 751 mmHg 83%
    16:00 +16°C° 0.4 mm 6 mps 751 mmHg 82%
    17:00 +16°C° 0.1 mm 5 mps 752 mmHg 82%
    18:00 +15°C° 0.1 mm 5 mps 752 mmHg 81%
    19:00 +15°C° 0.1 mm 4 mps 752 mmHg 81%
    20:00 +15°C° 0 mm 4 mps 752 mmHg 81%
    21:00 +14°C° 0 mm 4 mps 752 mmHg 81%
    22:00 +14°C° 0 mm 4 mps 752 mmHg 81%
    23:00 +14°C° 0 mm 4 mps 752 mmHg 82%

    21 August, Monday

    Time Temperature Precipitation Wind Pressure Humidity
    00:00 +13°C° 0 mm 4 mps 752 mmHg 83%
    01:00 +13°C° 0 mm 4 mps 752 mmHg 84%
    02:00 +13°C° 0 mm 4 mps 752 mmHg 85%
    03:00 +13°C° 0 mm 4 mps 752 mmHg 85%
    04:00 +12°C° 0 mm 4 mps 752 mmHg 86%
    05:00 +14°C° 0 mm 4 mps 752 mmHg 80%
    06:00 +15°C° 0 mm 5 mps 752 mmHg 73%
    07:00 +16°C° 0 mm 5 mps 752 mmHg 67%
    08:00 +19°C° 0 mm 6 mps 752 mmHg 59%
    09:00 +21°C° 0 mm 6 mps 752 mmHg 52%
    10:00 +23°C° 0 mm 6 mps 752 mmHg 45%
    11:00 +24°C° 0 mm 6 mps 752 mmHg 41%
    12:00 +26°C° 0 mm 6 mps 752 mmHg 38%
    13:00 +27°C° 0 mm 6 mps 751 mmHg 35%
    14:00 +26°C° 0 mm 5 mps 751 mmHg 36%
    15:00 +26°C° 0 mm 5 mps 751 mmHg 36%
    16:00 +26°C° 0 mm 5 mps 751 mmHg 37%
    17:00 +23°C° 0 mm 4 mps 751 mmHg 42%
    18:00 +21°C° 0 mm 4 mps 752 mmHg 48%
    19:00 +20°C° 0 mm 3 mps 752 mmHg 53%
    20:00 +19°C° 0 mm 3 mps 752 mmHg 57%
    21:00 +18°C° 0 mm 3 mps 752 mmHg 61%
    22:00 +17°C° 0 mm 2 mps 752 mmHg 65%
    23:00 +16°C° 0 mm 2 mps 752 mmHg 67%

    22 August, Tuesday

    Time Temperature Precipitation Wind Pressure Humidity
    00:00 +16°C° 0 mm 2 mps 752 mmHg 69%
    01:00 +15°C° 0 mm 2 mps 752 mmHg 71%
    02:00 +15°C° 0 mm 2 mps 752 mmHg 73%
    03:00 +15°C° 0 mm 2 mps 753 mmHg 74%
    04:00 +14°C° 0 mm 2 mps 753 mmHg 76%
    05:00 +16°C° 0 mm 2 mps 753 mmHg 71%
    06:00 +17°C° 0 mm 2 mps 753 mmHg 65%
    07:00 +18°C° 0 mm 2 mps 753 mmHg 60%
    08:00 +20°C° 0 mm 2 mps 753 mmHg 54%
    09:00 +23°C° 0 mm 2 mps 753 mmHg 47%
    10:00 +25°C° 0 mm 2 mps 752 mmHg 40%
    11:00 +26°C° 0 mm 3 mps 752 mmHg 37%
    12:00 +27°C° 0 mm 3 mps 751 mmHg 35%
    13:00 +27°C° 0 mm 3 mps 751 mmHg 32%
    14:00 +28°C° 0 mm 3 mps 751 mmHg 31%
    15:00 +28°C° 0 mm 3 mps 750 mmHg 30%
    16:00 +28°C° 0 mm 3 mps 750 mmHg 29%
    17:00 +26°C° 0 mm 2 mps 750 mmHg 33%
    18:00 +24°C° 0 mm 1 mps 750 mmHg 37%
    19:00 +22°C° 0 mm 1 mps 750 mmHg 42%
    20:00 +21°C° 0 mm 1 mps 750 mmHg 42%
    21:00 +20°C° 0 mm 2 mps 750 mmHg 43%
    22:00 +19°C° 0 mm 2 mps 750 mmHg 44%
    23:00 +19°C° 0 mm 2 mps 750 mmHg 45%
    Show more